Regional Weather Roundup
Issued by NWS

Home | Current Version | Previous Version | Text Only | Print | Product List | Glossary On
Versions: 1 2 3 4 5 6 7 8 9 10 11 12 13 14 15 16 17 18 19 20 21 22 23 24 25 26 27 28 29 30 31 32 33 34 35 36 37 38 39 40 41 42 43 44 45 46 47 48 49 50
000
ASUS45 KPSR 252210
RWRAZ

ARIZONA REGIONAL HOURLY WEATHER ROUNDUP
NATIONAL WEATHER SERVICE PHOENIX AZ
300 PM MST SAT APR 25 2015

NOTE: FAIR INDICATES FEW OR NO CLOUDS BELOW 12,000 FEET WITH NO
SIGNIFICANT WEATHER AND/OR OBSTRUCTIONS TO VISIBILITY.

AZZ001>003-036-252300-
NORTHWEST ARIZONA

CITY           SKY/WX    TMP DP  RH WIND       PRES   REMARKS
BULLHEAD CITY  CLOUDY    72  41  33 S29G39    29.71F
KINGMAN        CLOUDY    59  34  39 S23G30    29.78F
$$

AZZ004>008-015-016-018-252300-
NORTH CENTRAL ARIZONA

CITY           SKY/WX    TMP DP  RH WIND       PRES   REMARKS
GRAND CANYON   LGT RAIN  46  32  58 SW26G43   29.82F
WILLIAMS       CLOUDY    46  34  61 S18G32    29.91F
PRESCOTT       LGT RAIN  54  38  54 S23G32    29.84F
FLAGSTAFF      RAIN      39  38  96 SW28G36   29.87F FOG     WCI  28
PAYSON         CLOUDY    55  37  50 SW12G21   29.90F
PAGE           CLOUDY    61  36  39 SW12      29.70S
$$

AZZ009>014-017-252300-
NORTHEAST ARIZONA

CITY           SKY/WX    TMP DP  RH WIND       PRES   REMARKS
WINSLOW        CLOUDY    63  33  32 S23G32    29.81F
SAINT JOHNS    MOSUNNY   66  25  21 SW22G40   29.83F
WINDOW ROCK    CLOUDY    60  25  26 SW18G28   29.85F
SHOW LOW       MOSUNNY   57  27  30 SW28G35   29.90F
$$

AZZ023-252300-
GREATER PHOENIX AREA

CITY           SKY/WX    TMP DP  RH WIND       PRES   REMARKS
PHOENIX        PTSUNNY   80  42  25 W9G17     29.74F
BUCKEYE        PTSUNNY   77  45  31 SW16G25   29.77F
GLENDALE       PTSUNNY   79  43  27 S17G29    29.77F
DEER VALLEY    PTSUNNY   77  43  29 SW16G22   29.76F
SCOTTSDALE     PTSUNNY   75  41  29 VRB7G20   29.79F
MESA-FALCON    PTSUNNY   77  39  25 SW12G17   29.77F
MESA-GATEWAY   PTSUNNY   81  41  24 SW16      29.79F
CHANDLER       PTSUNNY   79  41  25 SW14      29.76F
$$

AZZ027-028-252300-
SOUTHWEST MARICOPA COUNTY AND PINAL COUNTY

CITY           SKY/WX    TMP DP  RH WIND       PRES   REMARKS
CASA GRANDE    PTSUNNY   81  39  22 SW21G26   29.76F
$$

AZZ503-504-507>509-252300-
SOUTHEAST ARIZONA

CITY           SKY/WX    TMP DP  RH WIND       PRES   REMARKS
TUCSON         PTSUNNY   79  32  18 W16G23    29.83F
RYAN FIELD       N/A     81  32  17 SW16G28   29.83F
NOGALES        SUNNY     77  25  14 SW16G32   29.89F
DOUGLAS        SUNNY     75  23  14 SW26G36   29.88F
SAFFORD        SUNNY     77  33  20 VRB6      29.80F
$$

AZZ020-021-025-026-031-252300-
SOUTHWEST ARIZONA

CITY           SKY/WX    TMP DP  RH WIND       PRES   REMARKS
YUMA           CLOUDY    74  45  35 W13       29.82F
$$

CAZ031-033-041-043-047-048-061-252300-
SOUTHERN CALIFORNIA

CITY           SKY/WX    TMP DP  RH WIND       PRES   REMARKS
DOWNTOWN L.A.  CLOUDY    63  54  72 VRB5G17   29.92F
L.A. AIRPORT   LGT RAIN  60  58  92 W18       29.93F FOG
SAN DIEGO      PTSUNNY   66  48  52 W13       29.99F
BURBANK        LGT RAIN  57  53  86 E5        29.91F FOG
ONTARIO        LGT RAIN  57  51  80 SW15      29.93F
RIVERSIDE      LGT RAIN  60  50  69 SW15G22   29.93F
PALM SPRINGS   CLOUDY    74  43  32 E16G23    29.79F
EL CENTRO NAS  CLOUDY    72  44  36 SW31G40   29.87F
IMPERIAL       CLOUDY    70  45  40 W31G39    29.81F
BLYTHE         CLOUDY    74  44  34 SW24G33   29.77F
NEEDLES        CLOUDY    74  40  29 S13G24    29.72F
$$

NVZ020-UTZ003-252300-
SOUTHERN NEVADA-UTAH

CITY           SKY/WX    TMP DP  RH WIND       PRES   REMARKS
LAS VEGAS      PTSUNNY   71  32  23 SW20G33   29.62F
SALT LAKE CITY CLOUDY    57  38  48 W12       29.66F
$$

NMZ009-TXZ055-252300-
NEW MEXICO-WEST TEXAS

CITY           SKY/WX    TMP DP  RH WIND       PRES   REMARKS
ALBUQUERQUE    PTSUNNY   68  23  18 SW13      29.80F
EL PASO        MOSUNNY   80  15   8 W28G33    29.82F
$$


........................KEY........................
SKY/WX - SKY CONDITION/WEATHER
TMP    - TEMPERATURE IN FAHRENHEIT
DP     - DEW POINT IN FAHRENHEIT
RH     - RELATIVE HUMIDITY IN PERCENT
WIND   - DIRECTION AND SPEED IN MILES PER HOUR (MPH)
VRB    - VARIABLE WIND DIRECTION
PRES   - MEAN SEA LEVEL PRESSURE IN INCHES OF MERCURY
         F - FALLING PRESSURE   R - RISING PRESSURE
         S - STEADY PRESSURE
VSB    - VISIBILITY IN MILES
HX     - HEAT INDEX IN FAHRENHEIT
WCI    - WIND CHILL INDEX IN FAHRENHEIT
TC     - TEMPERATURE IN CELSIUS WHICH IS ALSO KNOWN AS
         TEMPERATURE IN CENTIGRADE
AFB    - AIR FORCE BASE
         LUKE AFB IS LUKE AIR FORCE BASE
         DAVIS-MONTHAN IS DAVIS-MONTHAN AIR FORCE BASE
NAS    - NAVAL AIR STATION
         EL CENTRO NAS IS EL CENTRO NAVAL AIR STATION
N/A    - NOT AVAILABLE




USA.gov is the U.S. government's official web portal to all federal, state and local government web resources and services.